Location: Santa Maria di Sala
(45.5070°N, 12.0300°E)
Time: 00:52:32
(UTC+02:00)

COSMOS 2251 DEB - Visible Passes

Search period start: 28 May 2024 00:00
Search period end: 07 June 2024 00:00
Orbit: 740 x 758 km, 74.0° (Epoch: 27 May)

Date Brightness Start Highest point End Pass type
(mag) Time Alt. Az. Time Alt. Az. Time Alt. Az.
28 May ? 22:36:19 10° WSW 22:40:11 21° NW 22:44:05 10° N visible
29 May ? 21:52:28 10° SW 21:57:08 36° WNW 22:01:52 10° N visible
30 May ? 04:53:40 10° NNE 04:55:56 13° NE 04:58:12 10° ENE visible
30 May ? 22:55:21 10° WNW 22:57:00 11° NW 22:58:38 10° NNW visible
31 May ? 22:10:07 10° W 22:13:43 19° NW 22:17:20 10° N visible
01 Jun ? 21:26:04 10° WSW 21:30:37 32° WNW 21:35:12 10° N visible
02 Jun ? 04:26:42 10° NNE 04:29:29 14° NE 04:32:15 10° E visible
02 Jun ? 22:30:20 10° NW 22:30:33 10° NW 22:30:45 10° NW visible
03 Jun ? 21:43:56 10° W 21:47:13 17° NW 21:50:32 10° N visible
04 Jun ? 04:41:47 10° N 04:46:09 27° ENE 04:50:31 10° ESE visible
05 Jun ? 03:59:48 10° NNE 04:02:59 16° NE 04:06:10 10° E visible
